Flag for Japan Weather past 2 weeks in Kawasaki, Japan

Now
70 °F

Light rain. Passing clouds.


Feels Like: 70 °F
Forecast: 72 / 82 °F
Wind: 8 mph from Northeast

Location: Tokyo International Airport

Current Time: Aug 31, 2015 at 3:56:13 AM

Latest Report: Aug 31, 2015 at 3:30 AM


Visibility: N/A

Pressure: 29.89 "Hg

Humidity: 100%

Dew point: 70 °F

Location of KawasakiLocation

Historic Weather in Kawasaki — Graph

°F

Kawasaki temperature yesterday

Maximum temperature yesterday: 73 °F (at 1:30 PM)
Minimum temperature yesterday: 70 °F (at 12:00 AM)
Average temperature yesterday: 72 °F

Past Weeks' High & Low Weather Summary

 TemperatureHumidityPressure
High88 °F (Aug 18, 4:30 PM)100% (Aug 17, 3:03 PM)29.92 "Hg (Aug 17, 3:03 PM)
Low66 °F (Aug 26, 12:00 AM)58% (Aug 24, 12:30 PM)29.50 "Hg (Aug 22, 2:30 PM)
Average77 °F84%29.78 "Hg
* Reported Aug 16 2:00 AM — Aug 31 2:30 AM, Kawasaki, Weather by CustomWeather, © 2015

Note: Actual official high and low records may vary slightly from our data, if they occured in-between our weather recording intervals... More about our weather records

Advertising

Kawasaki weather history for previous 24 hours

 ConditionsComfort  
Time TempWeatherWind HumidityBarometerVisibility
2:30 AM
Mon, Aug 31
70 °FLight rain. Passing clouds.8 mph100%29.92 "HgN/A
2:00 AM70 °FLight rain. Passing clouds.9 mph100%29.89 "HgN/A
1:30 AM70 °FPassing clouds.9 mph100%29.89 "HgN/A
1:00 AM70 °FLight rain. Passing clouds.10 mph100%29.89 "Hg5 mi
12:30 AM70 °FLight rain. Passing clouds.10 mph100%29.89 "Hg5 mi
12:00 AM70 °FLight rain. Passing clouds.10 mph100%29.89 "Hg5 mi
11:30 PM
Sun, Aug 30
72 °FLight rain. Passing clouds.9 mph94%29.89 "HgN/A
11:00 PM70 °FLight rain. Passing clouds.8 mph100%29.89 "HgN/A
10:30 PM70 °FLight rain. Passing clouds.10 mph94%29.89 "HgN/A
10:00 PM70 °FLight rain. Passing clouds.12 mph100%29.89 "HgN/A
9:30 PM72 °FLight rain. Passing clouds.10 mph94%29.89 "HgN/A
9:00 PM72 °FLight rain. Passing clouds.10 mph94%29.89 "HgN/A
8:30 PM72 °FLight rain. Passing clouds.12 mph94%29.89 "HgN/A
8:00 PM72 °FSprinkles. Passing clouds.8 mph94%29.89 "HgN/A
7:30 PM72 °FSprinkles. Passing clouds.13 mph94%29.86 "HgN/A
7:00 PM72 °FSprinkles. Passing clouds.10 mph94%29.86 "HgN/A
6:30 PM72 °FPassing clouds.9 mph94%29.86 "HgN/A
6:00 PM72 °FSprinkles. Partly sunny.10 mph94%29.86 "Hg5 mi
5:30 PM72 °FSprinkles. Broken clouds.12 mph94%29.83 "Hg4 mi
5:00 PM73 °FSprinkles. Broken clouds.10 mph94%29.83 "Hg5 mi
4:30 PM73 °FSprinkles. Broken clouds.9 mph89%29.83 "HgN/A
4:00 PM73 °FSprinkles. Partly sunny.8 mph89%29.83 "HgN/A
3:30 PM72 °FSprinkles. Partly sunny.6 mph94%29.86 "HgN/A
3:00 PM73 °FSprinkles. Partly sunny.6 mph89%29.86 "HgN/A
2:30 PM73 °FScattered showers. Partly sunny.7 mph89%29.86 "HgN/A
2:00 PM73 °FSprinkles. Broken clouds.6 mph89%29.86 "HgN/A
1:30 PM73 °FSprinkles. Broken clouds.6 mph89%29.86 "HgN/A
12:46 PM72 °FSprinkles. Broken clouds.2 mph94%29.86 "HgN/A
12:30 PM72 °FSprinkles. Partly sunny.1 mph88%29.89 "HgN/A
12:00 PM72 °FSprinkles. Broken clouds.2 mph88%29.89 "HgN/A
11:30 AM72 °FRain showers. Fog.3 mph88%29.89 "Hg4 mi
11:00 AM72 °FSprinkles. Partly sunny.3 mph88%29.89 "HgN/A
10:30 AM72 °FSprinkles. Partly sunny.5 mph88%29.89 "HgN/A
10:00 AM72 °FSprinkles. Broken clouds.1 mph88%29.92 "HgN/A
9:30 AM72 °FPartly sunny.3 mph88%29.92 "HgN/A
9:00 AM72 °FLight rain. Partly sunny.1 mph88%29.92 "HgN/A
8:30 AM72 °FPartly sunny.3 mph83%29.89 "HgN/A
8:00 AM72 °FLight rain. Partly sunny.5 mph88%29.89 "HgN/A
7:30 AM72 °FLight rain. Partly sunny.3 mph83%29.89 "HgN/A
7:00 AM72 °FLight rain. Partly sunny.6 mph83%29.89 "HgN/A
6:30 AM72 °FPartly sunny.8 mph83%29.89 "HgN/A
6:00 AM72 °FBroken clouds.9 mph83%29.89 "HgN/A
5:30 AM72 °FPartly sunny.7 mph83%29.89 "HgN/A
5:00 AM72 °FLight rain. Passing clouds.7 mph83%29.89 "HgN/A
4:30 AM70 °FLight rain. Passing clouds.5 mph88%29.89 "HgN/A
4:00 AM70 °FLight rain. Passing clouds.5 mph88%29.89 "HgN/A
3:30 AM72 °FLight rain. Passing clouds.7 mph83%29.89 "HgN/A
3:00 AM72 °FPassing clouds.7 mph83%29.89 "HgN/A
Weather by CustomWeather, © 2015

See weather overviewHow to use our weather pages